Location: Seattle
(47.6064°N, 122.3308°W)
Time: 01:03:09
(UTC-08:00)

Envisat - Pass Details

Date: 02 November 2020
Orbit: 764 x 766 km, 98.1° (Epoch: 03 December)

Event Time Altitude Azimuth Distance (km) Brightness Sun altitude
Rises 05:16:39 0° 23° (NNE) 3,243 6.5 -17.1°
Reaches altitude 10° 05:19:19 10° 36° (NE) 2,312 5.9 -16.6°
Maximum altitude 05:23:37 27° 93° (E) 1,445 5.3 -15.9°
Drops below altitude 10° 05:27:52 10° 151° (SSE) 2,296 5.9 -15.2°
Sets 05:30:30 0° 163° (SSE) 3,217 6.5 -14.8°
